{"data":{"norad_id":63956,"intl_designator":"2025-099E","name":"STARLINK-34187","alt_names":[],"object_type":"PAYLOAD","status":"ACTIVE","operator":null,"country":"US","launch_date":"2025-05-13","launch_site_code":"AFETR","launch_vehicle":null,"mission":null,"orbit_class":"UNKNOWN","rcs_meters":null,"size_class":null,"mass_kg":null,"dimensions":null,"purposes":["comms"],"wikipedia_slug":null,"has_3d_model":false,"image_url":null,"decayed_at":null,"tle_current":{"epoch":"2026-05-25T04:38:53.009376Z","epoch_age_seconds":48536,"freshness":"FRESH","line1":"1 63956U 25099E   26145.19366909  .00018210  00000+0  66954-3 0  9999","line2":"2 63956  43.0007 104.4259 0001178 265.7361  94.3356 15.27583715 59038","mean_motion":15.27583715,"eccentricity":0.0001178,"inclination_deg":43.0007,"raan_deg":104.4259,"arg_perigee_deg":265.7361,"mean_anomaly_deg":94.3356,"bstar":0.00066954,"rev_number":5903,"period_min":94.266519462077,"perigee_km":482.22972560403,"apogee_km":483.84621842744,"semimajor_km":6861.1749720157,"source":"CELESTRAK","updated_at":"2026-05-25T13:38:20.211459Z"}}}